Location: Gerlach
(40.6516°N, 119.3568°W)
Time: 14:47:23
(UTC-07:00)

A-11 Canister half - Pass Details

Date: 21 February 2024
Orbit: 1525 x 1683 km, 47.3° (Epoch: 21 April)

Event Time Altitude Azimuth Distance (km) Brightness Sun altitude
Exits shadow 04:23:40 49° 263° (W) 1,900 9.0 -27.2°
Maximum altitude 04:25:48 59° 219° (SW) 1,739 8.9 -26.8°
Drops below altitude 10° 04:35:00 10° 143° (SE) 3,752 11.4 -25.1°
Sets 04:38:09 0° 139° (SE) 4,754 12.0 -24.5°
